sat.trackr.live / text

‹ back to catalog

WGS F4 (USA 233)

NORAD 38070 · 2012-003A

PAYLOAD ACTIVE UNKNOWN

§ Identity

Operator
Country
US
Launch date
2012-01-20
Launch site
AFETR
Launch vehicle
Mass (kg)
RCS (m²)
15.86

Purposes: comms

External: N2YO · Heavens-Above · Gunter

§ Orbital elements

Epoch: 2026-09-19T00:17:03.763968Z

Period
1,436.09 min
Inclination
0.0144°
Eccentricity
0.0000477
Mean motion
1.00272509 rev/d
Perigee alt
35,784.4 km
Apogee alt
35,788.4 km
Semi-major
42,164.5 km
B*
0.0000e+0
RAAN
154.0387°
Arg perigee
257.1680°
Mean anomaly
39.3744°
Rev number
4,508

§ Raw data

WGS F4 (USA 233)1 38070U 12003A   26262.01184912 -.00000219  00000+0  00000+0 0  99992 38070   0.0144 154.0387 0000477 257.1680  39.3744  1.00272509 45087

JSON: /api/v1/satellites/38070 · /tle

For live sub-satellite position, see the globe view (requires WebGL).

§ Visibility from observer

Set your observer location to see the next 7 days of passes ≥ 10°. The values pass through the URL so the page stays shareable.

No JS? Fill the form by hand. The geolocation button needs JavaScript.